Regional Weather Roundup
Issued by NWS Albany, NY

Home | Current Version | Previous Version | Text Only | Print | Product List | Glossary On
Versions: 1 2 3 4 5 6 7 8 9 10 11 12 13 14 15 16 17 18 19 20 21 22 23 24 25 26 27 28 29 30 31 32 33 34 35 36 37 38 39 40 41 42 43 44 45 46 47 48 49 50
000
ASUS41 KALY 172110
RWRALY

NEW YORK STATE HOURLY WEATHER ROUNDUP
NATIONAL WEATHER SERVICE ALBANY NY
400 PM EST FRI NOV 17 2017

NOTE: "FAIR" INDICATES FEW OR NO CLOUDS BELOW 12,000 FEET WITH NO
SIGNIFICANT WEATHER AND/OR NO OBSTRUCTIONS TO VISIBILITY.

NYZ032-033-038>043-046>054-057>066-NYZ062>081-082-084-172200-
EAST


CITY           SKY/WX    TMP DP  RH WIND       PRES   REMARKS
ALBANY         CLEAR     37  19  48 W22       30.09R WCI  26
GLENS FALLS    CLEAR     37  13  37 N10       30.05R WCI  30
POUGHKEEPSIE   CLEAR     45  15  30 W7        30.06R
NEWBURGH       CLEAR     43  18  36 W14       30.08R
MONTGOMERY     CLEAR     43  16  33 NW12G18   30.07R
WHITE PLAINS   CLEAR     43  17  35 NW16      30.04R
ISLIP          PTCLDY    46  22  38 NW16      30.03R
NEW YORK CITY  PTCLDY    49  20  31 NW22      30.06R
CENTRAL PARK   CLEAR     47  15  27 NW8G20    30.09S
$$

NYZ005>009-017-018-044>046-055-056-172200-
CENTRAL


CITY           SKY/WX    TMP DP  RH WIND       PRES   REMARKS
FULTON         CLEAR     34  22  61 W9        30.17S WCI  27
SYRACUSE       PTCLDY    34  20  56 W10       30.16F WCI  26
ROME           CLEAR     33  19  56 W10       30.16S WCI  25
ELMIRA         CLOUDY    35  22  58 N5        30.12F WCI  31
BINGHAMTON     CLEAR     33  16  49 NW7       30.10S WCI  27
MONTICELLO     CLEAR     36  15  42 NW10G22   30.08R WCI  28
$$

NYZ026>034-041>043-087-172200-
NORTH


CITY           SKY/WX    TMP DP  RH WIND       PRES   REMARKS
WATERTOWN      CLEAR     32  19  58 W7        30.15F WCI  26
FORT DRUM      NOT AVBL
OGDENSBURG     FAIR      33  13  44 W5        30.13F WCI  28
MASSENA        PTCLDY    30  15  53 W13       30.14S WCI  20
SARANAC LAKE   CLEAR     24  15  68 W10G16    30.03R WCI  14
PLATTSBURGH    CLEAR     31  14  49 W6        30.06S WCI  25
$$

NYZ001>004-010>016-019>021-085-172200-
WEST


CITY           SKY/WX    TMP DP  RH WIND       PRES   REMARKS
NIAGARA FALLS  CLEAR     36  25  64 S9        30.12F WCI  29
BUFFALO        PTCLDY    36  28  73 S5        30.11F WCI  32
DUNKIRK        CLEAR     38  29  70 CALM      30.11F
JAMESTOWN      CLOUDY    36  25  64 S8        30.09F WCI  30
WELLSVILLE     CLOUDY    37  22  54 SW3       30.09F
ROCHESTER      PTCLDY    37  23  56 W7        30.16F WCI  32
PENN YAN       CLEAR     38  17  42 VRB5      30.13F WCI  34
$$

             KEY
       WCI = WIND CHILL INDEX
       VSB = VISIBILITY
       HX  = HEAT INDEX
$$



USA.gov is the U.S. government's official web portal to all federal, state and local government web resources and services.